Civil Air Patrol

Glenn L. Martin Composite Squadron

Welcome to the Glenn L. Martin Composite Squadron Civil Air Patrol

 

We are the official auxiliary of the United States Air Force.

Our 3 main missions are cadet programs, aerospace education and emergency services.

Click each link to learn more about each mission.

 

Here is a short video from National Headquarters about CAP

 

 


 

 
Current METAR for KMTN (Martin State Airport)

KMTN 162250Z 27008KT 10SM OVC045 04/M02 A3020

 

Current TAF for KBWI (Baltimore Washington International)

TAF AMD KBWI 162055Z 1621/1724 28010G17KT P6SM OVC040 FM170100 30004KT P6SM SCT250 FM170900 35004KT P6SM SCT150 FM171400 05004KT P6SM BKN150 FM171800 11004KT P6SM BKN120